Wind_Speed
42 41 40 42 43 43 43 44 45 45 44 45 45 46 46 47 47 46 46 46 47 48 49 50 49 48 49 50 52 53 52 50 49 48 47 48 48 49 49 50 51 51
46 44 42 43 44 45 46 46 47 47 47 47 47 47 47 47 48 48 48 49 49 50 51 51 51 51 52 53 53 52 50 48 47 47 48 48 49 50 51 52 53 53
49 47 44 44 46 47 48 48 48 48 48 48 47 47 48 48 48 49 49 50 52 53 53 52 52 52 53 53 52 49 47 47 48 49 49 50 51 53 54 55 55 56
48 47 45 45 47 49 50 50 50 50 50 49 48 47 47 47 48 48 49 51 53 53 53 52 52 52 53 52 49 48 47 48 50 51 52 53 54 56 57 57 58 58
47 46 45 45 47 48 48 49 49 50 50 49 48 47 47 48 48 49 50 51 52 52 52 52 52 52 51 50 48 48 49 51 53 54 55 56 57 58 58 59 59 59
39 40 41 41 42 43 44 45 45 46 46 46 45 46 48 48 49 50 51 52 52 52 53 53 53 52 50 49 49 51 53 54 56 57 58 59 59 60 60 60 61 62
30 33 36 37 38 40 41 43 43 43 43 44 44 45 46 48 49 50 51 52 52 53 54 54 53 52 51 52 53 54 56 57 58 59 60 60 60 61 61 62 64 65
30 32 34 34 34 36 37 39 40 41 42 43 43 44 46 48 49 51 52 53 53 54 54 54 53 53 54 55 56 57 58 59 59 60 61 62 62 63 64 65 66 67
32 32 33 34 34 34 35 36 37 38 39 41 42 45 47 49 50 52 53 54 54 55 55 55 55 55 56 57 58 58 59 60 61 62 63 63 64 66 67 68 68 68
36 37 40 40 40 40 41 41 40 41 42 42 44 46 48 50 52 53 53 54 55 56 56 56 56 57 57 58 59 59 61 62 62 63 64 65 67 68 68 69 68 68
40 43 47 48 47 47 47 46 46 47 47 47 49 50 51 52 53 53 54 55 56 57 57 57 56 56 57 58 59 61 62 63 64 65 66 67 68 68 69 69 68 68
41 44 47 48 49 49 49 49 49 50 51 52 53 54 54 53 53 53 54 55 56 56 56 56 56 56 57 59 61 62 63 64 65 66 67 68 69 69 69 68 68 68
42 45 46 48 49 49 50 50 50 52 53 53 53 53 52 52 52 53 54 55 56 57 57 58 58 58 60 62 63 64 65 66 67 68 68 69 69 68 68 68 68 69
44 46 48 49 50 49 49 51 52 53 53 52 51 50 50 51 52 53 55 56 58 59 60 61 61 61 62 63 64 65 67 68 68 69 68 68 67 67 67 68 69 69
44 47 50 51 52 53 53 54 54 53 53 53 52 51 51 52 53 55 56 58 59 60 61 62 63 63 64 65 66 67 67 68 68 67 67 67 67 67 68 69 69 70
46 49 51 52 53 54 53 53 52 52 53 53 52 52 52 53 54 55 56 57 58 59 60 61 62 63 64 65 66 66 66 66 66 66 66 67 68 69 69 70 71 72
47 49 50 50 50 48 47 47 47 48 50 51 52 52 53 54 54 55 55 56 58 59 60 61 62 63 63 64 64 65 65 65 66 66 68 69 70 71 72 72 73 74
47 46 44 43 42 41 43 46 46 46 48 52 55 55 55 56 56 56 57 57 58 59 59 60 61 61 62 63 64 64 65 66 67 68 70 71 72 72 73 74 74 75
46 44 41 39 40 41 44 47 47 48 50 53 56 56 55 55 55 55 56 56 57 58 59 60 60 61 62 63 64 65 66 68 69 70 71 71 72 73 73 74 74 75
45 44 44 44 45 46 47 49 50 50 52 52 53 52 51 51 52 53 54 55 57 58 59 60 61 61 63 64 65 66 68 68 69 70 71 71 72 72 73 73 74 75
48 48 48 48 49 50 51 52 52 52 51 51 50 50 51 52 53 54 55 56 57 58 59 60 61 62 63 65 66 67 67 68 69 69 70 71 72 72 73 73 74 75
50 51 51 51 52 53 54 53 53 53 52 51 51 52 53 54 54 55 56 57 57 58 59 60 62 63 64 65 66 67 67 68 69 70 70 71 71 72 72 73 74 74
47 48 48 49 51 52 52 52 53 53 53 54 54 54 53 54 54 55 55 56 57 59 60 62 64 65 65 66 67 67 68 69 69 70 70 70 70 71 71 72 73 75
46 46 48 49 51 52 53 54 54 54 54 54 53 52 52 53 54 55 56 58 60 62 63 64 65 66 66 67 67 68 68 69 69 69 69 69 69 70 71 72 73 75
47 48 50 51 52 53 53 53 53 53 51 50 50 51 52 54 55 57 59 61 62 63 64 65 66 66 67 67 67 67 67 67 67 67 67 68 68 69 71 72 73 73
43 44 46 47 49 50 49 48 48 49 48 49 51 53 55 57 59 60 61 62 63 64 64 65 65 66 66 66 66 66 66 65 65 65 66 67 68 69 70 70 70 70
Wind_Direction
253 254 253 253 251 251 251 252 254 259 263 265 269 271 273 276 279 283 286 288 288 288 288 289 291 293 295 296 298 301 303 306 308 309 311 311 312 312 312 312 311 311
254 255 255 255 254 253 254 255 257 259 263 266 268 270 273 276 279 282 285 285 285 286 287 288 290 292 294 296 298 301 304 306 307 308 309 310 310 311 311 311 311 311
254 255 256 256 256 256 256 257 259 261 263 266 268 271 274 277 279 282 283 282 283 284 286 288 290 292 294 297 299 302 304 305 305 306 307 308 309 310 310 310 310 311
254 255 255 254 255 257 258 259 261 263 265 268 272 275 277 278 280 280 280 280 282 284 286 288 290 292 295 297 299 301 302 302 303 305 306 307 307 308 309 310 311 311
256 258 258 257 259 261 263 264 264 265 268 271 274 276 277 279 280 280 280 280 282 284 286 288 290 292 294 296 298 298 299 301 302 303 304 305 307 308 309 310 311 311
261 264 265 264 265 267 268 268 269 270 271 272 273 274 276 278 279 279 280 281 282 284 286 288 290 292 293 294 295 296 298 300 301 302 304 305 307 308 310 311 310 310
261 263 263 263 264 264 264 265 267 269 269 270 270 272 274 276 278 278 279 280 282 284 286 287 289 290 291 292 294 295 297 299 301 303 304 306 308 309 310 310 310 309
248 252 255 259 260 259 259 260 262 263 265 268 271 273 275 276 276 277 278 280 282 284 285 286 287 289 290 292 293 296 298 300 302 303 305 306 308 308 309 309 309 309
241 246 250 253 255 256 258 260 261 263 267 271 273 275 275 276 276 277 279 280 282 283 284 285 286 288 290 292 294 296 298 300 301 303 305 306 308 309 309 309 310 310
239 244 249 251 253 256 259 261 263 267 271 274 275 275 276 277 277 279 280 281 281 282 283 285 287 289 291 293 295 296 298 300 302 304 306 307 308 309 310 310 310 309
244 246 250 253 255 257 259 261 263 265 269 272 274 276 277 277 278 279 280 281 282 283 284 286 288 291 292 294 296 297 299 301 303 305 306 308 309 309 310 309 309 308
249 248 249 252 255 257 259 261 263 264 266 269 272 274 275 277 278 279 280 281 282 284 285 287 290 292 293 295 296 299 301 303 304 306 307 308 309 309 309 308 307 307
247 248 250 254 256 258 259 260 262 264 267 269 270 272 273 275 277 279 280 281 283 284 286 288 290 291 293 295 298 300 302 303 305 306 307 308 308 308 308 307 306 306
245 249 253 255 257 259 260 262 265 267 268 268 269 270 272 274 276 278 279 282 284 287 288 290 291 293 295 297 299 301 303 304 306 307 307 308 307 307 306 306 306 306
246 251 254 256 258 261 264 266 267 268 268 268 268 270 273 275 277 279 281 284 287 289 291 293 295 297 299 301 302 303 305 306 307 307 307 306 306 306 305 306 306 306
252 255 257 260 262 265 267 267 267 268 268 269 271 273 275 277 280 283 286 288 290 291 294 296 299 300 302 303 304 305 306 306 306 305 305 305 305 305 306 306 307 308
256 259 262 264 264 265 265 266 267 270 274 276 277 278 280 282 285 287 289 290 292 294 296 298 300 302 303 304 304 305 305 304 303 303 304 304 305 306 307 307 308 309
257 260 263 263 260 260 263 265 267 271 276 281 283 284 285 287 288 289 290 292 294 296 298 299 301 302 302 303 303 303 302 302 302 303 304 305 306 306 307 308 308 309
254 256 257 256 253 254 261 267 270 273 277 281 285 288 289 290 290 291 292 294 295 296 298 299 300 300 301 301 301 302 302 302 303 304 305 305 306 307 307 308 308 308
252 253 254 255 255 256 261 268 273 276 279 282 285 287 289 290 291 292 293 294 295 296 297 298 299 300 300 301 301 302 302 303 304 305 305 306 306 307 307 307 308 308
252 255 257 258 261 262 265 270 274 277 280 282 284 285 287 289 291 292 293 294 295 296 297 298 299 300 301 301 302 302 303 304 304 305 305 306 306 307 307 307 308 308
254 257 260 262 265 267 269 271 274 276 278 280 282 284 286 288 290 292 294 295 296 297 298 299 299 300 301 301 302 303 303 303 304 304 305 305 306 306 307 307 308 309
257 259 261 263 265 266 268 271 272 274 276 278 281 283 285 288 290 291 293 294 295 296 297 298 299 300 300 301 302 302 302 303 303 304 305 305 306 306 307 308 309 310
257 259 260 261 263 264 266 268 271 274 277 279 281 283 285 286 288 289 291 292 294 295 296 297 298 299 300 300 301 301 302 302 303 304 304 305 306 307 308 309 310 310
258 262 263 263 265 267 269 271 274 276 278 280 281 282 283 284 286 288 290 292 293 295 296 297 298 298 299 300 300 301 302 302 303 304 305 306 307 308 309 310 310 311
258 261 261 262 266 269 271 273 275 276 277 277 278 279 281 284 286 288 291 292 293 294 295 297 297 298 299 300 300 301 302 303 304 305 305 307 308 309 310 310 310 310
Height
10705 10707 10710 10710 10712 10713 10712 10711 10712 10712 10712 10711 10712 10712 10712 10713 10713 10713 10713 10712 10711 10710 10709 10708 10707 10706 10705 10703 10702 10701 10699 10696 10694 10691 10689 10687 10685 10683 10681 10679 10677 10675
10702 10705 10708 10709 10709 10709 10708 10708 10708 10708 10707 10707 10707 10707 10708 10708 10709 10709 10708 10707 10706 10705 10704 10703 10702 10701 10699 10698 10696 10695 10693 10690 10688 10686 10684 10682 10680 10678 10676 10674 10672 10670
10699 10702 10706 10708 10707 10705 10705 10704 10704 10703 10702 10702 10702 10702 10703 10704 10704 10704 10703 10702 10700 10699 10698 10697 10696 10695 10693 10692 10691 10689 10687 10684 10683 10681 10680 10678 10676 10674 10671 10669 10666 10664
10696 10699 10703 10705 10703 10701 10700 10700 10699 10698 10697 10697 10697 10698 10699 10699 10700 10699 10698 10697 10695 10694 10693 10692 10690 10689 10688 10687 10685 10683 10681 10679 10678 10676 10675 10673 10670 10668 10666 10663 10661 10658
10692 10694 10697 10698 10697 10696 10696 10695 10694 10693 10692 10692 10692 10693 10694 10695 10695 10694 10693 10691 10690 10689 10688 10686 10685 10684 10683 10682 10680 10678 10676 10674 10673 10671 10669 10667 10664 10662 10660 10657 10655 10652
10688 10689 10689 10690 10690 10690 10690 10689 10688 10688 10688 10688 10688 10689 10690 10690 10689 10688 10687 10686 10685 10684 10683 10681 10680 10679 10678 10677 10675 10673 10671 10669 10667 10665 10663 10660 10658 10655 10653 10651 10648 10645
10685 10684 10683 10683 10684 10684 10684 10683 10683 10683 10683 10684 10685 10686 10686 10685 10684 10683 10682 10681 10680 10679 10677 10676 10675 10674 10673 10672 10670 10668 10666 10663 10661 10659 10656 10653 10651 10649 10646 10644 10641 10638
10681 10680 10679 10678 10679 10679 10678 10678 10678 10678 10679 10680 10681 10681 10681 10680 10679 10678 10677 10676 10675 10674 10672 10671 10670 10669 10668 10667 10665 10663 10660 10657 10655 10652 10649 10647 10645 10642 10640 10637 10634 10631
10677 10676 10674 10674 10674 10673 10673 10673 10673 10674 10675 10676 10677 10677 10676 10675 10674 10673 10672 10671 10670 10668 10666 10665 10665 10664 10663 10661 10659 10657 10654 10652 10649 10646 10643 10641 10638 10636 10633 10630 10626 10623
10675 10673 10669 10669 10669 10668 10669 10669 10669 10671 10671 10672 10672 10671 10671 10670 10669 10668 10667 10665 10664 10662 10661 10661 10660 10660 10658 10655 10653 10651 10648 10645 10642 10639 10636 10633 10631 10628 10625 10622 10618 10614
10672 10669 10664 10664 10664 10663 10664 10664 10665 10666 10667 10666 10666 10665 10665 10665 10664 10663 10661 10659 10658 10656 10656 10656 10655 10654 10652 10649 10647 10644 10641 10638 10635 10632 10629 10626 10624 10621 10618 10614 10610 10606
10665 10663 10661 10660 10659 10659 10659 10660 10660 10661 10661 10660 10660 10660 10660 10660 10659 10657 10655 10654 10652 10651 10650 10650 10650 10648 10645 10643 10640 10638 10634 10631 10628 10625 10622 10620 10617 10614 10610 10606 10603 10599
10657 10656 10656 10655 10654 10654 10654 10655 10655 10655 10654 10655 10655 10655 10655 10655 10654 10652 10650 10648 10646 10645 10644 10644 10644 10642 10639 10637 10634 10631 10627 10624 10621 10618 10616 10613 10610 10606 10603 10599 10595 10592
10650 10650 10649 10649 10649 10649 10649 10649 10649 10648 10648 10648 10649 10650 10650 10650 10649 10647 10644 10642 10640 10638 10637 10636 10636 10635 10633 10630 10627 10623 10620 10617 10614 10612 10609 10606 10603 10599 10596 10592 10588 10584
10644 10644 10644 10644 10644 10645 10644 10644 10643 10642 10642 10642 10643 10645 10646 10645 10643 10641 10638 10636 10634 10632 10630 10628 10627 10626 10624 10621 10619 10616 10613 10610 10607 10605 10602 10599 10596 10593 10589 10584 10580 10576
10640 10639 10640 10640 10640 10640 10640 10638 10637 10636 10635 10637 10639 10640 10640 10639 10637 10635 10633 10631 10629 10626 10624 10622 10620 10618 10616 10613 10611 10608 10606 10603 10601 10598 10596 10593 10589 10586 10582 10577 10573 10568
10634 10634 10635 10635 10636 10636 10634 10632 10632 10631 10629 10630 10631 10632 10632 10632 10631 10630 10628 10625 10623 10621 10619 10617 10614 10612 10610 10607 10605 10602 10600 10597 10595 10592 10589 10586 10583 10578 10574 10569 10565 10560
10629 10630 10631 10631 10633 10632 10628 10625 10626 10627 10625 10623 10622 10623 10624 10625 10624 10623 10621 10619 10617 10615 10613 10611 10609 10607 10604 10602 10599 10596 10594 10591 10588 10586 10582 10579 10575 10571 10566 10561 10557 10552
10625 10627 10627 10627 10628 10627 10622 10620 10622 10623 10621 10619 10616 10616 10617 10617 10616 10615 10614 10613 10612 10610 10608 10606 10604 10601 10599 10596 10593 10590 10588 10585 10582 10578 10575 10571 10567 10562 10558 10554 10549 10545
10621 10621 10622 10621 10621 10621 10619 10618 10617 10617 10616 10615 10614 10613 10612 10611 10610 10609 10609 10608 10606 10605 10603 10601 10598 10596 10593 10590 10587 10584 10581 10578 10574 10571 10567 10563 10559 10555 10550 10546 10542 10537
10616 10615 10616 10615 10615 10615 10615 10614 10613 10611 10611 10610 10610 10608 10607 10606 10604 10603 10603 10602 10600 10599 10597 10594 10592 10589 10587 10584 10580 10577 10574 10570 10567 10563 10559 10555 10551 10547 10543 10539 10534 10530
10611 10611 10611 10610 10610 10609 10609 10608 10608 10607 10606 10606 10605 10604 10602 10601 10599 10598 10597 10595 10594 10592 10590 10588 10585 10583 10580 10577 10573 10570 10566 10563 10559 10556 10552 10548 10544 10540 10536 10531 10527 10522
10605 10605 10605 10605 10604 10603 10603 10603 10603 10602 10601 10601 10600 10599 10598 10596 10594 10593 10591 10590 10588 10586 10584 10582 10579 10576 10573 10570 10566 10563 10559 10556 10552 10549 10545 10541 10537 10533 10529 10524 10520 10515
10600 10600 10599 10598 10597 10597 10597 10598 10598 10597 10597 10596 10595 10594 10593 10591 10590 10588 10587 10585 10583 10580 10578 10575 10572 10570 10567 10563 10560 10556 10553 10549 10546 10542 10539 10535 10530 10526 10522 10518 10513 10508
10596 10594 10592 10591 10591 10591 10592 10593 10593 10592 10591 10590 10590 10589 10587 10586 10584 10583 10581 10579 10577 10574 10572 10569 10566 10563 10560 10557 10553 10550 10546 10543 10539 10536 10532 10528 10524 10520 10515 10511 10506 10501
10592 10588 10585 10585 10586 10586 10587 10588 10588 10587 10586 10585 10584 10583 10582 10580 10579 10577 10576 10574 10571 10569 10566 10563 10560 10557 10554 10551 10547 10544 10540 10537 10533 10529 10525 10521 10517 10513 10509 10504 10500 10495